This is the latest recevied weather packets stored in our database for station/object EA2DXT-10. If no packets are shown the sender has not sent any weather packets the latest 10 day(s).
| Time | Temp. | Humidity | Pressure | Rain* | Wind** | Luminosity | Snow |
|---|---|---|---|---|---|---|---|
| 1777376931 | 30.56° C | 70% | 945.7 hPa | - | - | - | - |
| 1777376030 | 22.78° C | 69% | 632.5 hPa | - | - | - | - |
| 1777375129 | 30.56° C | 70% | 945.9 hPa | - | - | - | - |
| 1777374228 | 22.78° C | 69% | 632.5 hPa | - | - | - | - |
| 1777373194 | 31.67° C | 70% | 946.2 hPa | - | - | - | - |
| 1777372292 | 30° C | 70% | 946.3 hPa | - | - | - | - |
| 1777372265 | 30° C | 70% | 946.4 hPa | - | - | - | - |
| 1777371723 | 30° C | 70% | 946.5 hPa | - | - | - | - |
| 1777369018 | 29.44° C | 70% | 946.9 hPa | - | - | - | - |
| 1777368987 | 28.89° C | 70% | 946.8 hPa | - | - | - | - |
| 1777368959 | 28.89° C | 70% | 946.8 hPa | - | - | - | - |
| 1777368933 | 28.89° C | 70% | 946.8 hPa | - | - | - | - |
| 1777368838 | 28.33° C | 70% | 946.8 hPa | - | - | - | - |
| 1777367678 | 23.33° C | 60% | 947.6 hPa | - | - | - | - |
| 1777367652 | 23.33° C | 69% | 947.9 hPa | - | - | - | - |
| 1777366751 | 23.33° C | 69% | 947.8 hPa | - | - | - | - |
| 1777365851 | 20.56° C | 69% | 947.9 hPa | - | - | - | - |
| 1777364951 | 19.44° C | 69% | 947.9 hPa | - | - | - | - |
| 1777364050 | 18.89° C | 69% | 947.9 hPa | - | - | - | - |
| 1777363150 | 17.78° C | 69% | 947.8 hPa | - | - | - | - |
| 1777362250 | 16.67° C | 69% | 947.8 hPa | - | - | - | - |
| 1777361349 | 16.11° C | 69% | 948 hPa | - | - | - | - |
| 1777361318 | 16.11° C | 69% | 948 hPa | - | - | - | - |
| 1777360417 | 16.11° C | 69% | 948 hPa | - | - | - | - |
| 1777360390 | 16.11° C | 69% | 948 hPa | - | - | - | - |
* Rain since midnight (hover to see other rain measurements)
** Current wind speed in m/s (hover to see current wind gust speed)